CAPE
0 0 0 0 155 261 211 32 0 32 215 88 79 75 81 1 0 52 69 93 24 33 52 82 127 113 163 221 402 285 271 299 285 256 263 233 177 95 61 0 0 0 0 51
0 0 186 369 219 167 371 412 234 151 29 27 75 9 2 82 21 1 11 23 182 94 155 148 174 172 298 423 413 378 242 328 316 210 249 274 221 173 148 151 14 0 122 67
0 0 39 1 50 223 172 142 85 68 63 213 36 13 8 4 6 6 3 5 38 74 37 57 5 19 34 17 73 79 79 101 211 196 176 144 179 168 188 160 52 105 4 0
0 0 0 0 5 275 311 236 43 71 107 99 7 5 5 5 5 5 5 4 4 4 3 11 3 0 0 0 6 27 37 49 60 52 114 55 87 131 126 130 15 5 0 0
0 0 0 21 4 15 162 261 228 167 90 41 1 0 0 3 3 3 4 4 2 2 2 2 1 1 8 0 0 0 11 29 50 37 10 36 36 33 43 86 66 20 0 1
0 0 36 0 0 13 50 185 245 334 144 111 150 47 6 1 0 1 1 2 1 1 2 2 1 1 25 55 33 32 32 19 21 55 40 39 1 0 1 1 1 1 1 0
0 0 0 0 0 9 128 3 279 164 23 1 21 1 0 0 0 0 0 0 0 0 1 1 1 1 13 2 1 1 0 45 37 50 29 4 1 1 1 1 0 1 0 1
0 0 0 0 0 18 1 21 387 68 0 1 1 1 1 0 0 0 0 0 0 0 0 0 0 1 1 1 2 2 0 12 12 5 2 1 1 0 1 3 1 1 0 0
0 0 0 0 0 0 1 208 265 4 0 0 0 0 0 0 0 0 0 0 0 0 0 0 0 0 0 2 1 1 1 1 1 0 1 1 1 1 1 1 0 0 0 0
19 0 2 0 5 36 178 164 0 0 0 0 0 0 0 0 0 0 0 0 0 0 0 0 0 0 0 2 1 0 1 1 1 3 1 1 1 1 1 1 9 5 0 0
0 1 0 0 0 274 25 0 0 0 0 0 0 0 0 0 0 0 0 0 0 0 0 0 0 0 0 0 0 0 0 1 1 6 2 4 4 5 4 4 6 0 3 0
74 0 14 0 32 146 36 0 0 0 0 0 0 0 0 0 0 0 0 0 0 0 0 0 0 0 0 0 0 0 0 0 0 0 0 0 1 2 2 1 7 0 0 0
80 0 0 3 248 83 15 0 0 0 0 0 0 0 0 0 0 0 0 0 0 0 0 0 0 0 0 0 0 0 0 0 0 0 0 0 0 0 0 0 0 0 0 0
0 6 288 465 480 104 5 0 0 0 0 0 0 0 0 0 0 0 0 0 0 0 0 0 0 0 0 0 0 0 0 0 0 0 0 0 0 0 0 0 0 0 0 0
0 0 0 227 322 95 0 0 0 0 0 0 0 0 0 0 0 0 0 0 0 0 0 0 0 0 0 0 0 0 0 0 0 0 0 0 0 0 0 0 0 0 0 0
0 0 148 426 312 57 0 0 0 0 0 0 0 0 0 0 0 0 0 0 0 0 0 0 0 0 0 0 0 0 0 0 0 0 0 0 0 0 0 0 0 0 0 0
0 0 102 259 189 44 7 0 0 0 0 0 0 0 0 0 0 0 0 0 0 0 0 0 0 0 0 0 0 0 0 0 0 0 0 0 0 0 0 0 0 0 0 0
0 0 0 112 111 91 20 0 0 0 0 0 0 0 0 0 0 0 0 0 0 0 0 0 0 0 0 0 0 0 0 0 0 0 0 0 0 0 0 0 0 0 0 0
0 0 0 0 12 68 63 11 0 0 0 0 0 0 0 0 0 0 0 0 0 0 0 0 0 1 0 0 0 0 0 0 0 0 0 0 0 0 0 0 0 0 0 0
0 0 0 0 0 0 0 0 0 0 0 0 0 0 0 0 0 0 0 0 0 0 0 0 0 0 0 0 20 0 0 0 0 0 0 0 0 0 0 0 0 0 0 0
0 0 0 0 0 0 0 0 0 0 0 0 0 0 0 0 0 0 0 0 0 0 0 0 0 0 0 0 13 0 0 0 0 0 0 0 0 0 0 0 0 0 0 0
0 0 0 0 0 0 0 0 0 0 0 0 0 0 0 0 0 0 0 0 0 0 0 0 0 0 0 3 0 0 0 0 0 0 0 0 0 0 0 0 0 0 0 0
0 0 0 0 0 0 0 0 0 0 0 0 0 0 0 0 0 0 0 0 0 0 0 0 0 0 0 0 0 0 0 0 0 0 0 0 0 0 0 0 0 0 0 0
0 0 0 0 0 0 0 0 0 0 0 0 0 0 0 0 0 0 0 0 0 0 0 0 0 0 0 0 0 0 0 0 0 0 0 0 0 0 0 0 0 0 0 0
0 0 0 0 0 0 0 0 0 0 0 0 0 0 0 0 0 0 0 0 0 0 0 0 0 0 0 0 0 0 0 0 0 0 0 0 0 0 0 0 0 0 0 0
0 0 0 0 0 0 0 0 0 0 0 0 0 0 0 0 0 0 0 0 0 0 0 0 0 0 0 0 0 0 0 0 0 0 0 0 0 0 0 0 0 0 0 0
0 0 0 0 0 0 0 0 0 0 0 0 0 0 0 0 0 0 0 0 0 0 0 0 0 0 0 0 0 0 0 0 0 0 0 0 0 0 0 0 0 0 0 2
CIN
-0 -0 -0 -0 -106 -117 -144 -226 -0 -117 -162 -205 -211 -209 -255 -289 -43 -289 -252 -267 -268 -252 -240 -209 -225 -250 -245 -251 -223 -265 -257 -231 -237 -245 -212 -186 -164 -185 -192 -0 -0 -0 -0 -45
-0 -0 -74 -55 -87 -117 -131 -111 -160 -200 -241 -260 -222 -268 -68 -256 -413 -197 -340 -268 -172 -236 -203 -145 -136 -139 -137 -138 -165 -146 -142 -171 -177 -195 -209 -186 -169 -140 -124 -116 -43 -0 -105 -104
-0 -0 -76 -43 -116 -78 -123 -166 -188 -191 -238 -163 -276 -104 -0 -0 -0 -0 -0 -0 -181 -183 -200 -244 -169 -291 -281 -317 -225 -202 -150 -159 -129 -103 -128 -146 -144 -161 -117 -109 -156 -110 -103 -0
-0 -0 -0 -0 -189 -136 -129 -129 -249 -231 -180 -183 -308 -0 -0 -0 -0 -0 -0 -0 -0 -0 -0 -111 -135 -0 -0 -0 -250 -182 -130 -124 -87 -67 -67 -56 -111 -112 -101 -104 -161 -86 -0 -0
-0 -0 -0 -142 -221 -219 -153 -102 -179 -174 -197 -263 -265 -0 -0 -0 -0 -0 -0 -0 -0 -0 -0 -0 -0 -0 -290 -71 -0 -0 -159 -90 -80 -48 -5 -59 -72 -113 -98 -87 -81 -168 -0 -0
-0 -0 -50 -0 -0 -413 -296 -23 -157 -172 -166 -179 -155 -271 -69 -0 -0 -0 -0 -0 -0 -0 -0 -0 -0 -0 -213 -123 -125 -118 -111 -49 -30 -28 -20 -58 -34 -63 -0 -127 -0 -0 -0 -0
-0 -0 -0 -0 -0 -190 -49 -31 -176 -198 -209 -182 -270 -0 -0 -0 -0 -0 -0 -0 -0 -0 -0 -0 -0 -0 -166 -132 -0 -0 -4 -56 -24 -10 -47 -99 -0 -0 -0 -0 -0 -0 -0 -0
-0 -0 -0 -0 -0 -157 -24 -211 -179 -239 -0 -0 -0 -0 -0 -0 -0 -0 -0 -0 -0 -0 -0 -0 -0 -0 -0 -0 -0 -0 -0 -44 -10 -35 -6 -0 -0 -0 -0 -0 -0 -0 -0 -0
-0 -0 -0 -0 -0 -0 -262 -230 -177 -208 -0 -0 -0 -0 -0 -0 -0 -0 -0 -0 -0 -0 -0 -0 -0 -0 -0 -0 -0 -0 -0 -0 -0 -0 -0 -0 -0 -0 -0 -0 -0 -0 -0 -0
-194 -0 -166 -0 -279 -138 -210 -186 -0 -0 -0 -0 -0 -0 -0 -0 -0 -0 -0 -0 -0 -0 -0 -0 -0 -0 -0 -0 -0 -0 -0 -0 -0 -0 -0 -0 -0 -0 -0 -0 -0 -0 -0 -0
-0 -62 -0 -0 -0 -186 -310 -0 -0 -0 -0 -0 -0 -0 -0 -0 -0 -0 -0 -0 -0 -0 -0 -0 -0 -0 -0 -0 -0 -0 -0 -0 -0 -0 -0 -0 -0 -0 -0 -0 -0 -0 -0 -0
-53 -0 -28 -0 -217 -252 -315 -15 -0 -0 -0 -0 -0 -0 -0 -0 -0 -0 -0 -0 -0 -0 -0 -0 -0 -0 -0 -0 -0 -0 -0 -0 -0 -0 -0 -0 -0 -0 -0 -0 -0 -0 -0 -0
-132 -0 -0 -316 -238 -256 -280 -0 -0 -0 -0 -0 -0 -0 -0 -0 -0 -0 -0 -0 -0 -0 -0 -0 -0 -0 -0 -0 -0 -0 -0 -0 -0 -0 -0 -0 -0 -0 -0 -0 -0 -0 -0 -0
-0 -101 -193 -224 -170 -247 -235 -0 -0 -0 -0 -0 -0 -0 -0 -0 -0 -0 -0 -0 -0 -0 -0 -0 -0 -0 -0 -0 -0 -0 -0 -0 -0 -0 -0 -0 -0 -0 -0 -0 -0 -0 -0 -0
-0 -0 -0 -280 -211 -225 -0 -0 -0 -0 -0 -0 -0 -0 -0 -0 -0 -0 -0 -0 -0 -0 -0 -0 -0 -0 -0 -0 -0 -0 -0 -0 -0 -0 -0 -0 -0 -0 -0 -0 -0 -0 -0 -0
-0 -0 -262 -181 -199 -228 -102 -0 -0 -0 -0 -0 -0 -0 -0 -0 -0 -0 -0 -0 -0 -0 -0 -0 -0 -0 -0 -0 -0 -0 -0 -0 -0 -0 -0 -0 -0 -0 -0 -0 -0 -0 -0 -0
-0 -0 -228 -170 -190 -246 -320 -0 -0 -0 -0 -0 -0 -0 -0 -0 -0 -0 -0 -0 -0 -0 -0 -0 -0 -0 -0 -0 -0 -0 -0 -0 -0 -0 -0 -0 -0 -0 -0 -0 -0 -0 -0 -0
-0 -0 -0 -187 -230 -232 -289 -0 -0 -0 -0 -0 -0 -0 -0 -0 -0 -0 -0 -0 -0 -0 -0 -0 -0 -0 -0 -0 -0 -0 -0 -0 -0 -0 -0 -0 -0 -0 -0 -0 -0 -0 -0 -0
-0 -0 -0 -0 -308 -245 -239 -334 -0 -0 -0 -0 -0 -0 -0 -0 -0 -0 -0 -0 -0 -0 -0 -0 -0 -60 -0 -0 -0 -0 -0 -0 -0 -0 -0 -0 -0 -0 -0 -0 -0 -0 -0 -0
-0 -0 -0 -0 -0 -0 -0 -0 -34 -0 -0 -0 -0 -0 -0 -0 -0 -0 -0 -0 -0 -0 -0 -0 -0 -0 -0 -0 -80 -0 -0 -0 -0 -0 -0 -0 -0 -0 -0 -0 -0 -0 -0 -0
-0 -0 -0 -0 -0 -0 -0 -0 -0 -0 -0 -0 -0 -0 -0 -0 -0 -0 -0 -0 -0 -0 -0 -0 -0 -0 -0 -0 -122 -0 -0 -0 -0 -0 -0 -0 -0 -0 -0 -0 -0 -0 -0 -0
-0 -0 -0 -0 -0 -0 -0 -0 -0 -0 -0 -0 -0 -0 -0 -0 -0 -0 -0 -0 -0 -0 -0 -0 -0 -0 -0 -47 -0 -0 -0 -0 -0 -0 -0 -0 -0 -0 -0 -0 -0 -0 -0 -0
-0 -0 -0 -0 -0 -0 -0 -0 -0 -0 -0 -0 -0 -0 -0 -0 -0 -0 -0 -0 -0 -0 -0 -0 -0 -0 -0 -0 -0 -0 -0 -0 -0 -0 -0 -0 -0 -0 -0 -0 -0 -0 -0 -0
-0 -0 -0 -0 -0 -0 -0 -0 -0 -0 -0 -0 -0 -0 -0 -0 -0 -0 -0 -0 -0 -0 -0 -0 -0 -0 -0 -0 -0 -0 -0 -0 -0 -0 -0 -0 -0 -0 -0 -0 -0 -0 -0 -0
-0 -0 -0 -0 -0 -0 -0 -0 -0 -0 -0 -0 -0 -0 -0 -0 -0 -0 -0 -0 -0 -0 -0 -0 -0 -0 -0 -0 -0 -0 -0 -0 -0 -0 -0 -0 -0 -0 -0 -0 -0 -0 -0 -0
-0 -0 -0 -0 -0 -0 -0 -0 -0 -0 -0 -0 -0 -0 -0 -0 -0 -0 -0 -0 -0 -0 -0 -0 -0 -0 -0 -0 -0 -0 -0 -0 -0 -0 -0 -0 -0 -0 -0 -0 -0 -0 -0 -0
-0 -0 -0 -0 -0 -0 -0 -0 -0 -0 -0 -0 -0 -0 -0 -0 -0 -0 -0 -0 -0 -0 -0 -0 -0 -0 -0 -0 -0 -0 -0 -0 -0 -0 -0 -0 -0 -0 -0 -0 -0 -0 -0 -0
Wind_Speed
3 3 3 1 5 4 4 2 2 7 7 0 4 7 9 9 10 7 7 3 9 8 6 5 6 6 5 7 7 9 11 11 12 11 9 8 7 7 6 5 5 4 4 4
2 5 6 3 5 4 4 5 7 10 5 4 7 6 8 9 11 13 12 10 6 3 8 5 4 3 2 3 4 5 7 10 7 7 9 10 8 7 7 7 6 5 5 4
4 4 5 3 3 4 3 3 2 5 3 5 4 5 5 6 7 8 8 9 9 5 5 6 6 6 5 3 3 2 2 3 4 6 7 9 9 7 7 7 7 7 6 4
2 3 3 2 2 2 9 2 5 5 7 7 6 5 5 6 5 5 6 7 8 7 9 5 3 5 6 6 6 5 0 1 2 3 4 6 6 7 5 5 5 4 4 7
3 2 3 3 4 6 3 1 3 7 6 9 7 4 3 3 4 3 3 4 5 7 6 6 4 4 6 6 7 6 2 3 3 4 8 5 5 7 5 4 5 5 4 6
1 2 7 6 4 3 3 3 6 8 7 6 6 2 1 4 6 6 5 3 3 4 3 3 7 6 4 5 5 5 6 6 5 4 6 7 6 4 3 3 3 5 4 4
2 2 7 3 3 3 5 9 6 7 2 4 4 1 3 4 5 5 5 8 6 5 5 8 9 6 5 5 5 2 0 3 4 7 7 7 5 3 4 5 5 5 6 4
2 1 6 2 5 6 3 7 7 6 5 9 7 5 5 5 6 7 9 10 11 9 9 9 10 8 7 8 5 3 5 5 3 3 5 6 7 6 7 5 7 4 2 4
8 7 4 3 3 3 4 1 3 6 4 8 8 4 2 2 4 7 6 7 7 8 9 11 11 10 10 9 8 8 9 8 7 8 8 8 4 9 7 5 6 4 2 3
2 3 4 4 3 3 3 3 4 8 11 8 6 6 4 3 3 4 4 5 5 7 9 9 9 9 8 8 8 9 10 9 9 7 9 9 7 7 6 4 4 4 4 3
5 6 4 6 5 5 4 8 9 5 4 6 7 5 4 4 3 4 4 4 6 6 6 6 6 7 6 6 6 9 9 7 8 7 8 8 9 7 6 6 4 3 3 2
8 6 5 5 6 6 7 6 7 7 6 4 4 6 5 4 2 3 4 3 5 4 5 4 6 7 7 6 4 5 7 6 5 6 5 5 6 5 9 8 6 9 9 3
3 3 2 4 6 3 5 8 5 5 5 7 4 5 5 4 2 3 4 5 6 5 5 5 5 6 6 6 6 7 5 4 4 5 4 4 3 3 4 3 5 6 7 7
4 7 4 4 6 6 6 6 7 5 5 5 4 4 4 3 3 4 4 3 4 4 5 5 5 6 5 5 5 5 6 8 3 3 3 3 4 3 3 3 3 2 5 3
7 7 4 8 9 6 6 6 6 5 5 5 4 5 4 4 4 3 2 3 3 3 3 3 4 3 4 4 5 6 4 3 4 4 3 3 4 2 2 3 3 2 2 2
7 4 7 11 14 10 9 7 5 6 6 5 7 7 7 6 5 4 4 4 4 2 1 1 1 1 1 2 3 3 3 6 4 3 3 3 3 2 2 3 3 2 1 1
10 5 6 6 11 11 13 12 11 11 9 10 11 9 7 6 5 5 5 5 4 4 3 3 4 2 3 3 2 2 2 2 4 3 2 2 2 3 2 2 2 2 2 1
6 9 10 12 12 11 8 10 8 9 12 12 9 9 9 9 9 7 6 5 5 5 6 6 5 4 4 5 4 3 2 2 1 2 2 1 1 1 1 0 0 1 0 1
7 9 8 7 10 12 12 11 11 13 8 9 10 12 9 7 7 5 4 4 4 5 6 5 9 9 5 6 7 4 4 4 3 2 2 3 2 2 2 1 1 2 2 2
6 5 7 7 7 9 9 7 7 7 8 9 8 6 8 8 6 5 5 6 6 5 2 4 5 5 5 7 11 6 6 6 5 4 3 3 3 3 2 4 4 3 3 3
10 9 9 9 9 8 7 7 8 8 9 10 11 11 11 7 7 5 4 4 4 4 3 2 1 0 0 3 5 4 4 4 4 4 4 4 3 3 4 4 5 5 5 5
6 7 8 8 8 8 7 7 6 6 7 8 7 5 6 5 5 4 2 4 2 3 3 3 3 4 3 5 2 2 3 4 3 3 3 3 4 4 4 3 4 4 5 5
6 6 6 7 8 8 6 7 7 7 8 8 8 8 9 8 8 7 5 5 4 5 3 3 4 7 8 4 3 2 2 2 2 2 2 3 3 3 2 3 3 3 3 2
5 6 6 4 4 6 8 7 7 8 9 9 9 9 10 6 3 1 1 9 11 8 4 4 6 9 7 3 3 2 1 1 1 1 0 0 0 0 0 1 2 3 3 4
7 6 5 7 7 7 7 7 6 6 7 7 6 6 7 4 5 7 5 6 11 8 4 6 10 9 4 3 3 2 2 1 1 1 1 1 1 1 2 2 3 4 5 5
6 6 6 9 9 7 6 5 8 7 6 6 4 6 6 5 4 8 7 9 7 8 6 5 4 4 4 3 2 2 2 2 2 2 2 1 2 2 1 1 2 3 4 5
3 3 3 3 4 6 6 8 8 8 8 8 7 8 9 7 7 8 8 7 6 6 6 5 5 5 4 4 3 3 2 1 2 1 2 2 2 2 2 2 2 3 4 5
Wind_Direction
246 227 178 59 346 341 103 291 237 165 138 332 329 344 357 354 8 30 30 51 166 163 174 193 198 201 221 225 207 200 196 195 207 200 195 193 196 202 196 193 208 197 209 233
329 242 116 67 4 336 56 108 116 130 123 262 70 40 19 12 6 12 16 10 23 108 121 123 118 108 153 177 184 186 212 220 200 188 187 195 198 203 199 199 186 185 202 201
265 344 100 268 254 98 15 350 162 208 159 143 90 80 44 43 38 29 12 13 8 9 100 122 130 139 124 108 112 177 196 231 230 206 202 207 206 180 193 189 167 185 156 156
220 38 207 282 282 307 131 2 67 106 142 137 136 111 75 43 47 43 12 10 2 4 355 357 262 144 139 139 118 111 42 322 212 250 208 229 194 192 165 156 183 176 173 163
163 162 300 286 214 192 211 177 183 147 161 162 189 176 114 63 71 69 18 9 357 347 345 313 324 267 151 166 149 135 183 282 283 234 220 219 210 155 151 162 179 165 189 178
84 154 201 244 156 112 116 270 206 119 191 212 216 263 175 35 27 25 26 31 8 348 352 334 317 297 134 198 167 185 158 191 225 217 203 189 164 149 115 126 134 122 116 107
155 235 286 254 121 147 157 233 161 114 136 200 197 65 95 46 28 12 9 13 9 26 25 10 350 25 80 70 47 8 71 203 204 211 181 149 133 103 109 104 106 110 115 99
111 208 278 140 129 181 246 329 102 108 154 119 113 92 71 33 24 30 15 18 10 21 23 15 22 33 48 46 12 17 72 50 82 82 107 111 110 95 97 102 94 86 139 152
173 217 240 264 228 225 191 194 85 114 122 119 121 112 74 37 35 45 38 26 24 27 29 21 22 29 38 19 19 34 50 45 45 58 38 34 88 115 112 114 116 137 145 76
55 260 223 240 213 250 202 123 92 118 136 144 139 146 134 125 80 58 46 41 50 53 48 32 24 32 32 33 37 56 56 48 35 39 60 41 45 52 57 64 134 143 126 125
262 275 300 256 220 163 116 101 106 106 135 150 140 146 130 122 104 92 72 51 42 51 60 47 30 36 22 32 56 71 77 67 63 48 54 67 53 32 63 49 8 48 52 86
220 214 169 214 173 160 134 134 148 141 144 129 132 126 111 119 134 126 114 104 88 68 62 40 57 42 18 10 58 79 68 74 79 78 67 74 86 76 49 62 49 54 63 54
203 122 144 128 133 135 133 150 155 136 107 130 132 127 121 119 131 98 85 89 77 51 39 43 41 49 16 23 32 38 53 74 84 88 106 106 104 117 116 101 107 106 93 90
180 135 93 176 174 165 129 115 103 99 114 120 124 91 101 120 119 132 123 97 95 91 67 61 51 34 5 21 55 65 74 61 71 54 56 89 92 96 105 103 115 126 64 84
218 209 240 124 119 125 103 116 122 140 133 127 127 137 150 163 171 174 151 140 106 87 68 71 74 45 11 28 50 46 47 50 69 79 60 64 64 45 55 67 80 83 79 97
146 170 154 140 156 146 143 142 153 166 161 159 165 178 189 188 189 192 181 169 172 212 352 327 275 222 102 84 86 68 59 79 77 68 59 67 80 95 99 117 145 158 128 98
130 141 122 130 156 160 180 180 185 184 173 179 187 182 177 186 191 203 216 211 220 247 247 231 240 220 199 178 155 138 111 61 85 58 53 42 37 48 51 39 25 8 343 318
181 179 173 168 174 173 178 183 168 170 193 192 169 169 180 186 206 207 210 196 212 237 232 231 231 230 209 192 194 179 175 177 169 140 127 151 153 147 111 81 314 262 276 280
189 164 177 176 181 183 182 179 182 192 172 171 164 193 195 203 204 190 165 184 230 261 262 180 214 218 208 210 198 191 191 199 196 197 191 168 183 208 209 210 245 256 271 265
179 182 174 194 169 168 190 197 173 170 171 171 173 161 193 212 200 176 169 217 219 225 260 243 209 215 211 205 209 188 196 201 200 205 206 217 218 224 245 247 248 253 250 251
184 177 172 175 188 190 191 171 169 184 178 173 179 189 200 199 192 181 166 218 234 221 247 284 208 247 198 211 215 190 204 209 206 210 217 224 232 241 241 241 251 254 248 240
177 175 184 182 175 188 187 178 179 151 163 178 189 175 151 180 171 160 200 179 152 155 116 89 79 100 92 139 137 181 204 220 230 227 235 227 223 239 252 261 262 254 250 250
179 185 185 168 179 196 158 173 181 170 173 179 178 172 180 181 172 160 190 200 170 163 135 131 132 106 92 80 84 97 119 162 198 218 231 237 246 251 270 285 294 296 301 287
178 189 198 184 131 132 175 206 191 191 194 194 197 184 159 154 180 229 76 144 143 146 157 148 133 119 103 94 80 71 84 100 121 126 56 64 85 72 73 4 354 352 340 325
190 190 165 162 177 208 205 197 184 195 199 208 203 184 179 172 164 177 163 155 153 144 159 174 152 135 113 100 78 67 76 103 127 119 109 96 90 85 76 54 13 349 336 325
185 200 200 195 207 201 202 153 201 204 191 196 177 168 163 155 137 146 155 152 163 154 168 174 168 160 161 154 132 108 99 113 122 122 117 120 135 152 191 316 338 336 329 322
261 217 201 222 226 215 196 197 198 210 197 195 187 174 163 149 151 147 149 149 165 177 175 186 183 181 188 187 194 191 180 194 213 195 201 207 216 238 262 276 296 306 303 305